Regional Weather Roundup
Issued by NWS

Home | Current Version | Previous Version | Text Only | Print | Product List | Glossary On
Versions: 1 2 3 4 5 6 7 8 9 10 11 12 13 14 15 16 17 18 19 20 21 22 23 24 25 26 27 28 29 30 31 32 33 34 35 36 37 38 39 40 41 42 43 44 45 46 47 48 49 50
000
ASUS43 KLSX 221859
RWRMO

WEATHER SUMMARY FOR MISSOURI
NATIONAL WEATHER SERVICE SPRINGFIELD MO
200 PM CDT TUE JUL 22 2014

NOTE: "FAIR" INDICATES FEW OR NO CLOUDS BELOW 12,000 FEET WITH NO
       SIGNIFICANT WEATHER AND/OR OBSTRUCTIONS TO VISIBILITY.
       CURRENT SKY AND/OR WEATHER CONDITIONS ARE NOT AVAILABLE FOR
       CHILLICOTHE AND FARMINGTON.

MOZ001>031-035>038-043-044-053-054-222000-
...NORTHERN AND WESTERN MISSOURI...

CITY           SKY/WX    TMP DP  RH WIND       PRES   REMARKS
KANSAS CTY INT PTSUNNY   91  78  65 SW10      30.02F HX 106
KANSAS C DTWN  MOSUNNY   96  73  47 SW12      29.99F HX 105
LEE`S SUMMIT   SUNNY     91  75  59 SW8       30.03F HX 101
ST JOSEPH      MOSUNNY   92  77  61 SW10      29.99F HX 105
CHILLICOTHE      N/A     92  77  61 S9        30.00F HX 105
KIRKSVILLE     MOSUNNY   89  77  67 SW9G18    30.01F HX 101

$$
MOZ066>068-077>081-088>096-101>105-222000-
...SOUTHWEST MISSOURI...

CITY           SKY/WX    TMP DP  RH WIND       PRES   REMARKS
SPRINGFIELD    MOSUNNY   90  74  59 VRB6      30.10F HX  99
JOPLIN         MOSUNNY   93  73  52 NW7       30.09F HX 102

$$
MOZ032>034-039>042-045>050-055>058-069>072-222000-
...CENTRAL MISSOURI...

CITY           SKY/WX    TMP DP  RH WIND       PRES   REMARKS
COLUMBIA       PTSUNNY   91  76  61 SW7       30.04F HX 103
JEFFERSON CITY PTSUNNY   90  75  61 VRB5      30.03F HX 100
ROLLA          PTSUNNY   88  71  57 VRB3      30.08F HX  94
SEDALIA        SUNNY     92  76  59 SW13      30.05F HX 104
OSAGE BEACH    SUNNY     91  73  55 W5        30.06F HX 100

$$
MOZ051-052-059>065-222000-
...EAST CENTRAL MISSOURI...

CITY           SKY/WX    TMP DP  RH WIND       PRES   REMARKS
ST LOUIS INTL  CLOUDY    91  70  49 W10       30.05F HX  96
SPIRIT OF STL  PTSUNNY   89  71  55 W3        30.03F HX  95
ST CHARLES     CLOUDY    88  72  58 S10       30.00F HX  94

$$
MOZ072>076-082>087-097>100-106>115-222000-
...SOUTH CENTRAL AND SOUTHEAST MISSOURI...

CITY           SKY/WX    TMP DP  RH WIND       PRES   REMARKS
CAPE GIRARDEAU SUNNY     88  68  51 W6        30.08F HX  91
FARMINGTON     MOSUNNY   86  70  58 S5        30.12F HX  90
POPLAR BLUFF   SUNNY     86  65  49 SW6       30.08F
WEST PLAINS    MOSUNNY   86  71  60 VRB6      30.12F HX  91

$$


USA.gov is the U.S. government's official web portal to all federal, state and local government web resources and services.